| time (UTC) | temp C | wind direction | speed KPH | gust KPH | rain 1hr cm | rain 24hr cm | rain mn cm | humidity % | barometer mb |
| 20260502170509 | 20 | 281 | 12.9 | 24.1 | 0.00 | 0.00 | 0.00 | 31 | 1011.5 |
| 20260502164011 | 19 | 259 | 6.4 | 19.3 | 0.00 | 0.00 | 0.00 | 36 | 1011.9 |
| 20260502163509 | 18 | 223 | 6.4 | 19.3 | 0.00 | 0.00 | 0.00 | 37 | 1011.9 |
| 20260502163032 | 18 | 282 | 6.4 | 14.5 | 0.00 | 0.00 | 0.00 | 39 | 1012.0 |
| 20260502162504 | 18 | 260 | 8.0 | 16.1 | 0.00 | 0.00 | 0.00 | 38 | 1012.1 |
| 20260502162008 | 17 | 222 | 4.8 | 16.1 | 0.00 | 0.00 | 0.00 | 40 | 1012.3 |
| 20260502161516 | 17 | 260 | 8.0 | 16.1 | 0.00 | 0.00 | 0.00 | 40 | 1012.4 |
| 20260502161007 | 16 | 277 | 9.7 | 19.3 | 0.00 | 0.00 | 0.00 | 41 | 1012.5 |
| 20260502160508 | 16 | 275 | 9.7 | 19.3 | 0.00 | 0.00 | 0.00 | 39 | 1012.7 |
| 20260502152007 | 13 | 227 | 11.3 | 16.1 | 0.00 | 0.00 | 0.00 | 45 | 1013.3 |
| 20260502151514 | 13 | 251 | 8.0 | 16.1 | 0.00 | 0.00 | 0.00 | 45 | 1013.4 |
| 20260502151006 | 13 | 239 | 11.3 | 16.1 | 0.00 | 0.00 | 0.00 | 45 | 1013.5 |
| 20260502150508 | 13 | 250 | 8.0 | 17.7 | 0.00 | 0.00 | 0.00 | 47 | 1013.6 |
| 20260502130505 | 5 | 215 | 6.4 | 14.5 | 0.00 | 0.00 | 0.00 | 66 | 1015.0 |
| 20260502123512 | 3 | 186 | 4.8 | 9.7 | 0.00 | 0.00 | 0.00 | 70 | 1015.3 |
| 20260502123028 | 3 | 185 | 6.4 | 9.7 | 0.00 | 0.00 | 0.00 | 70 | 1015.3 |
| 20260502122512 | 2 | 187 | 4.8 | 9.7 | 0.00 | 0.00 | 0.00 | 70 | 1015.3 |
| 20260502122011 | 2 | 191 | 4.8 | 9.7 | 0.00 | 0.00 | 0.00 | 70 | 1015.4 |
| 20260502121526 | 2 | 187 | 6.4 | 9.7 | 0.00 | 0.00 | 0.00 | 70 | 1015.4 |
| 20260502121004 | 2 | 193 | 3.2 | 8.0 | 0.00 | 0.00 | 0.00 | 70 | 1015.5 |
| 20260502120506 | 2 | 174 | 6.4 | 8.0 | 0.00 | 0.00 | 0.00 | 70 | 1015.5 |
| 20260502115504 | 2 | 191 | 3.2 | 11.3 | 0.00 | 0.00 | 0.00 | 70 | 1015.6 |
| 20260502115007 | 2 | 169 | 4.8 | 11.3 | 0.00 | 0.00 | 0.00 | 70 | 1015.7 |
| 20260502114527 | 2 | 191 | 4.8 | 9.7 | 0.00 | 0.00 | 0.00 | 70 | 1015.7 |
| 20260502114005 | 2 | 204 | 4.8 | 9.7 | 0.00 | 0.00 | 0.00 | 70 | 1015.7 |
| 20260502113507 | 2 | 189 | 4.8 | 11.3 | 0.00 | 0.00 | 0.00 | 70 | 1015.7 |
| 20260502113025 | 2 | 196 | 6.4 | 11.3 | 0.00 | 0.00 | 0.00 | 70 | 1015.7 |
| 20260502112507 | 2 | 187 | 4.8 | 9.7 | 0.00 | 0.00 | 0.00 | 70 | 1015.8 |
| 20260502112009 | 2 | 186 | 4.8 | 9.7 | 0.00 | 0.00 | 0.00 | 70 | 1015.8 |
| 20260502111526 | 2 | 198 | 4.8 | 8.0 | 0.00 | 0.00 | 0.00 | 70 | 1015.8 |
| 20260502111011 | 2 | 187 | 1.6 | 9.7 | 0.00 | 0.00 | 0.00 | 70 | 1015.9 |
| 20260502110510 | 2 | 174 | 4.8 | 9.7 | 0.00 | 0.00 | 0.00 | 69 | 1015.9 |
| 20260502110016 | 2 | 196 | 6.4 | 9.7 | 0.00 | 0.00 | 0.00 | 69 | 1015.9 |
| 20260502105507 | 2 | 181 | 4.8 | 9.7 | 0.00 | 0.00 | 0.00 | 69 | 1015.9 |
| 20260502105004 | 2 | 178 | 4.8 | 9.7 | 0.00 | 0.00 | 0.00 | 68 | 1016.1 |
| 20260502104521 | 2 | 177 | 4.8 | 8.0 | 0.00 | 0.00 | 0.00 | 68 | 1016.1 |
| 20260502104005 | 2 | 182 | 4.8 | 6.4 | 0.00 | 0.00 | 0.00 | 68 | 1016.1 |
| 20260502103512 | 2 | 169 | 3.2 | 6.4 | 0.00 | 0.00 | 0.00 | 68 | 1016.2 |
| 20260502103022 | 2 | 180 | 3.2 | 6.4 | 0.00 | 0.00 | 0.00 | 68 | 1016.2 |
| 20260502102507 | 2 | 179 | 1.6 | 6.4 | 0.00 | 0.00 | 0.00 | 67 | 1016.3 |
| 20260502102008 | 2 | 194 | 3.2 | 6.4 | 0.00 | 0.00 | 0.00 | 67 | 1016.4 |
| 20260502101526 | 2 | 185 | 3.2 | 8.0 | 0.00 | 0.00 | 0.00 | 67 | 1016.5 |
| 20260502101011 | 2 | 192 | 4.8 | 6.4 | 0.00 | 0.00 | 0.00 | 67 | 1016.6 |
| 20260502100511 | 2 | 194 | 3.2 | 6.4 | 0.00 | 0.00 | 0.00 | 66 | 1016.7 |
| 20260502091524 | 2 | 171 | 3.2 | 4.8 | 0.00 | 0.00 | 0.00 | 64 | 1017.1 |
| 20260502091010 | 2 | 175 | 1.6 | 6.4 | 0.00 | 0.00 | 0.00 | 64 | 1017.2 |
| 20260502090507 | 2 | 185 | 1.6 | 6.4 | 0.00 | 0.00 | 0.00 | 63 | 1017.1 |
| 20260502071520 | 2 | 210 | 0.0 | 0.0 | 0.00 | 0.00 | 0.00 | 56 | 1018.0 |
| 20260502071006 | 2 | 210 | 0.0 | 0.0 | 0.00 | 0.00 | 0.00 | 56 | 1018.0 |
| 20260502070506 | 2 | 210 | 0.0 | 0.0 | 0.00 | 0.00 | 0.00 | 56 | 1018.1 |
| 20260502070024 | 2 | 210 | 0.0 | 0.0 | 0.00 | 0.00 | 0.00 | 57 | 1018.2 |
| 20260502065507 | 2 | 210 | 0.0 | 0.0 | 0.00 | 0.00 | 0.00 | 57 | 1018.3 |
| 20260502065008 | 2 | 210 | 0.0 | 0.0 | 0.00 | 0.00 | 0.00 | 55 | 1018.3 |
| 20260502064540 | 2 | 210 | 0.0 | 0.0 | 0.00 | 0.00 | 0.00 | 55 | 1018.3 |
| 20260502064012 | 3 | 203 | 0.0 | 0.0 | 0.00 | 0.00 | 0.00 | 54 | 1018.3 |
| 20260502063510 | 3 | 203 | 0.0 | 0.0 | 0.00 | 0.00 | 0.00 | 53 | 1018.4 |
| 20260502063026 | 3 | 203 | 0.0 | 0.0 | 0.00 | 0.00 | 0.00 | 53 | 1018.4 |
| 20260502062509 | 3 | 203 | 0.0 | 0.0 | 0.00 | 0.00 | 0.00 | 52 | 1018.5 |
| 20260502062013 | 3 | 203 | 0.0 | 0.0 | 0.00 | 0.00 | 0.00 | 52 | 1018.5 |
| 20260502061527 | 4 | 203 | 0.0 | 0.0 | 0.00 | 0.00 | 0.00 | 51 | 1018.4 |
| 20260502061006 | 4 | 202 | 0.0 | 0.0 | 0.00 | 0.00 | 0.00 | 51 | 1018.4 |
| 20260502060507 | 4 | 202 | 0.0 | 1.6 | 0.00 | 0.00 | 0.00 | 51 | 1018.4 |
| 20260502060031 | 4 | 202 | 0.0 | 3.2 | 0.00 | 0.00 | 0.00 | 52 | 1018.5 |
| 20260502055507 | 4 | 193 | 1.6 | 3.2 | 0.00 | 0.00 | 0.00 | 51 | 1018.5 |
| 20260502055009 | 3 | 189 | 1.6 | 3.2 | 0.00 | 0.00 | 0.00 | 53 | 1018.5 |
| 20260502054526 | 3 | 183 | 0.0 | 0.0 | 0.00 | 0.00 | 0.00 | 54 | 1018.5 |
| 20260502054007 | 4 | 184 | 0.0 | 0.0 | 0.00 | 0.00 | 0.00 | 55 | 1018.5 |
| 20260502053511 | 3 | 182 | 0.0 | 0.0 | 0.00 | 0.00 | 0.00 | 54 | 1018.5 |
| 20260502053025 | 3 | 185 | 0.0 | 0.0 | 0.00 | 0.00 | 0.00 | 55 | 1018.5 |
| 20260502052510 | 3 | 198 | 0.0 | 0.0 | 0.00 | 0.00 | 0.00 | 57 | 1018.6 |
| 20260502052009 | 3 | 144 | 0.0 | 0.0 | 0.00 | 0.00 | 0.00 | 57 | 1018.5 |
| 20260502051532 | 3 | 143 | 0.0 | 0.0 | 0.00 | 0.00 | 0.00 | 56 | 1018.5 |
| 20260502051011 | 3 | 143 | 0.0 | 0.0 | 0.00 | 0.00 | 0.00 | 56 | 1018.5 |
| 20260502050511 | 3 | 143 | 0.0 | 0.0 | 0.00 | 0.00 | 0.00 | 56 | 1018.6 |
| 20260502050022 | 3 | 143 | 0.0 | 0.0 | 0.00 | 0.00 | 0.00 | 55 | 1018.6 |
| 20260502045508 | 4 | 143 | 0.0 | 0.0 | 0.00 | 0.00 | 0.00 | 55 | 1018.6 |
| 20260502045006 | 4 | 143 | 0.0 | 0.0 | 0.00 | 0.00 | 0.00 | 56 | 1018.6 |
| 20260502044522 | 4 | 143 | 0.0 | 0.0 | 0.00 | 0.00 | 0.00 | 55 | 1018.6 |
| 20260502044006 | 4 | 102 | 0.0 | 0.0 | 0.00 | 0.00 | 0.00 | 54 | 1018.7 |
| 20260502043503 | 5 | 102 | 0.0 | 0.0 | 0.00 | 0.00 | 0.00 | 54 | 1018.7 |
| 20260502043005 | 5 | 102 | 0.0 | 0.0 | 0.00 | 0.00 | 0.00 | 54 | 1018.6 |
| 20260502042506 | 5 | 102 | 0.0 | 0.0 | 0.00 | 0.00 | 0.00 | 52 | 1018.7 |
| 20260502042005 | 5 | 102 | 0.0 | 0.0 | 0.00 | 0.00 | 0.00 | 53 | 1018.8 |
| 20260502041512 | 5 | 102 | 0.0 | 0.0 | 0.00 | 0.00 | 0.00 | 52 | 1018.8 |
| 20260502041005 | 5 | 60 | 0.0 | 0.0 | 0.00 | 0.00 | 0.00 | 51 | 1018.8 |
| 20260502040506 | 5 | 60 | 0.0 | 0.0 | 0.00 | 0.00 | 0.00 | 51 | 1018.8 |
| 20260502040022 | 5 | 60 | 0.0 | 0.0 | 0.00 | 0.00 | 0.00 | 52 | 1018.7 |
| 20260502035511 | 5 | 60 | 0.0 | 0.0 | 0.00 | 0.00 | 0.00 | 52 | 1018.8 |
| 20260502035007 | 5 | 55 | 0.0 | 0.0 | 0.00 | 0.00 | 0.00 | 55 | 1018.8 |
| 20260502034522 | 5 | 55 | 0.0 | 0.0 | 0.00 | 0.00 | 0.00 | 47 | 1018.8 |
| 20260502034008 | 6 | 55 | 0.0 | 0.0 | 0.00 | 0.00 | 0.00 | 48 | 1018.8 |
| 20260502033508 | 6 | 55 | 0.0 | 0.0 | 0.00 | 0.00 | 0.00 | 48 | 1018.8 |
| 20260502033005 | 6 | 55 | 0.0 | 0.0 | 0.00 | 0.00 | 0.00 | 47 | 1018.7 |
| 20260502032503 | 6 | 55 | 0.0 | 0.0 | 0.00 | 0.00 | 0.00 | 46 | 1018.7 |
| 20260502032003 | 6 | 55 | 0.0 | 0.0 | 0.00 | 0.00 | 0.00 | 45 | 1018.8 |
| 20260502031508 | 6 | 55 | 0.0 | 0.0 | 0.00 | 0.00 | 0.00 | 46 | 1018.9 |
| 20260502031004 | 6 | 55 | 0.0 | 0.0 | 0.00 | 0.00 | 0.00 | 46 | 1018.7 |
| 20260502030507 | 6 | 55 | 0.0 | 0.0 | 0.00 | 0.00 | 0.00 | 46 | 1018.7 |
| 20260502030014 | 6 | 55 | 0.0 | 0.0 | 0.00 | 0.00 | 0.00 | 45 | 1018.8 |
| 20260502025507 | 6 | 55 | 0.0 | 0.0 | 0.00 | 0.00 | 0.00 | 49 | 1018.8 |
| 20260502025010 | 6 | 55 | 0.0 | 0.0 | 0.00 | 0.00 | 0.00 | 47 | 1018.8 |
| 20260502024519 | 6 | 51 | 0.0 | 0.0 | 0.00 | 0.00 | 0.00 | 46 | 1018.8 |
| 20260502024009 | 7 | 40 | 0.0 | 0.0 | 0.00 | 0.00 | 0.00 | 42 | 1018.7 |
| 20260502023508 | 7 | 40 | 0.0 | 0.0 | 0.00 | 0.00 | 0.00 | 40 | 1018.8 |
| 20260502023022 | 7 | 40 | 0.0 | 0.0 | 0.00 | 0.00 | 0.00 | 39 | 1018.7 |
| 20260502022508 | 7 | 40 | 0.0 | 0.0 | 0.00 | 0.00 | 0.00 | 39 | 1018.7 |
| 20260502022004 | 8 | 40 | 0.0 | 0.0 | 0.00 | 0.00 | 0.00 | 38 | 1018.6 |
| 20260502021508 | 8 | 40 | 0.0 | 0.0 | 0.00 | 0.00 | 0.00 | 38 | 1018.6 |
| 20260502021003 | 8 | 40 | 0.0 | 0.0 | 0.00 | 0.00 | 0.00 | 37 | 1018.6 |
| 20260502020504 | 9 | 40 | 0.0 | 0.0 | 0.00 | 0.00 | 0.00 | 36 | 1018.6 |
| 20260502020015 | 10 | 40 | 0.0 | 0.0 | 0.00 | 0.00 | 0.00 | 35 | 1018.6 |
| 20260502015504 | 10 | 40 | 0.0 | 0.0 | 0.00 | 0.00 | 0.00 | 35 | 1018.6 |
| 20260502015007 | 10 | 40 | 0.0 | 0.0 | 0.00 | 0.00 | 0.00 | 34 | 1018.6 |
| 20260502014514 | 10 | 40 | 0.0 | 0.0 | 0.00 | 0.00 | 0.00 | 33 | 1018.6 |
| 20260502014007 | 11 | 34 | 0.0 | 0.0 | 0.00 | 0.00 | 0.00 | 32 | 1018.7 |
| 20260502013509 | 11 | 18 | 0.0 | 0.0 | 0.00 | 0.00 | 0.00 | 30 | 1018.7 |
| 20260502013022 | 11 | 18 | 0.0 | 0.0 | 0.00 | 0.00 | 0.00 | 30 | 1018.6 |
| 20260502012507 | 12 | 18 | 0.0 | 0.0 | 0.00 | 0.00 | 0.00 | 30 | 1018.5 |
| 20260502012014 | 12 | 18 | 0.0 | 0.0 | 0.00 | 0.00 | 0.00 | 30 | 1018.6 |
| 20260502011524 | 12 | 18 | 0.0 | 0.0 | 0.00 | 0.00 | 0.00 | 29 | 1018.6 |
| 20260502011003 | 12 | 26 | 0.0 | 0.0 | 0.00 | 0.00 | 0.00 | 29 | 1018.6 |
| 20260502010503 | 12 | 26 | 0.0 | 0.0 | 0.00 | 0.00 | 0.00 | 27 | 1018.5 |
| 20260502010017 | 12 | 26 | 0.0 | 0.0 | 0.00 | 0.00 | 0.00 | 27 | 1018.5 |
| 20260502005508 | 12 | 26 | 0.0 | 0.0 | 0.00 | 0.00 | 0.00 | 27 | 1018.7 |
| 20260502005004 | 13 | 26 | 0.0 | 3.2 | 0.00 | 0.00 | 0.00 | 28 | 1018.6 |
| 20260502004525 | 13 | 345 | 0.0 | 3.2 | 0.00 | 0.00 | 0.00 | 28 | 1018.6 |
| 20260502004008 | 13 | 328 | 0.0 | 6.4 | 0.00 | 0.00 | 0.00 | 29 | 1018.6 |
| 20260502003507 | 13 | 331 | 3.2 | 11.3 | 0.00 | 0.00 | 0.00 | 28 | 1018.6 |
| 20260502003022 | 13 | 316 | 0.0 | 11.3 | 0.00 | 0.00 | 0.00 | 28 | 1018.6 |
| 20260502002511 | 13 | 309 | 0.0 | 4.8 | 0.00 | 0.00 | 0.00 | 29 | 1018.6 |
| 20260502002010 | 13 | 60 | 1.6 | 4.8 | 0.00 | 0.00 | 0.00 | 27 | 1018.5 |
| 20260502001524 | 13 | 49 | 0.0 | 14.5 | 0.00 | 0.00 | 0.00 | 26 | 1018.6 |
| 20260502001011 | 13 | 349 | 1.6 | 14.5 | 0.00 | 0.00 | 0.00 | 28 | 1018.6 |
| 20260502000510 | 13 | 332 | 6.4 | 12.9 | 0.00 | 0.00 | 0.00 | 28 | 1018.6 |
| 20260502000006 | 13 | 333 | 0.0 | 8.0 | 0.00 | 0.00 | 0.00 | 27 | 1018.7 |
| 20260501235508 | 13 | 319 | 1.6 | 8.0 | 0.00 | 0.00 | 0.00 | 27 | 1018.7 |
| 20260501235007 | 13 | 281 | 0.0 | 6.4 | 0.00 | 0.00 | 0.00 | 27 | 1018.8 |
| 20260501234514 | 13 | 15 | 0.0 | 4.8 | 0.00 | 0.00 | 0.00 | 28 | 1018.9 |
| 20260501234008 | 13 | 11 | 0.0 | 4.8 | 0.00 | 0.00 | 0.00 | 28 | 1018.8 |
| 20260501233507 | 13 | 310 | 0.0 | 6.4 | 0.00 | 0.00 | 0.00 | 27 | 1018.8 |
| 20260501233018 | 13 | 66 | 0.0 | 12.9 | 0.00 | 0.00 | 0.00 | 28 | 1018.8 |
| 20260501232512 | 13 | 339 | 0.0 | 12.9 | 0.00 | 0.00 | 0.00 | 27 | 1018.8 |
| 20260501232010 | 14 | 336 | 4.8 | 12.9 | 0.00 | 0.00 | 0.00 | 28 | 1018.8 |
| 20260501231522 | 14 | 336 | 0.0 | 9.7 | 0.00 | 0.00 | 0.00 | 29 | 1018.8 |
| 20260501231007 | 14 | 66 | 0.0 | 12.9 | 0.00 | 0.00 | 0.00 | 30 | 1018.8 |
| 20260501230515 | 13 | 288 | 3.2 | 12.9 | 0.00 | 0.00 | 0.00 | 30 | 1018.8 |
| 20260501230028 | 13 | 303 | 3.2 | 8.0 | 0.00 | 0.00 | 0.00 | 29 | 1018.8 |
| 20260501225510 | 13 | 9 | 0.0 | 8.0 | 0.00 | 0.00 | 0.00 | 30 | 1018.9 |
| 20260501225008 | 13 | 63 | 0.0 | 6.4 | 0.00 | 0.00 | 0.00 | 29 | 1018.8 |
| 20260501224511 | 13 | 11 | 0.0 | 14.5 | 0.00 | 0.00 | 0.00 | 28 | 1018.8 |
| 20260501224006 | 13 | 311 | 6.4 | 14.5 | 0.00 | 0.00 | 0.00 | 28 | 1018.8 |
| 20260501223504 | 13 | 325 | 4.8 | 12.9 | 0.00 | 0.00 | 0.00 | 28 | 1018.8 |
| 20260501223014 | 13 | 346 | 3.2 | 11.3 | 0.00 | 0.00 | 0.00 | 30 | 1018.8 |
| 20260501222511 | 13 | 267 | 3.2 | 11.3 | 0.00 | 0.00 | 0.00 | 29 | 1018.8 |
| 20260501222010 | 13 | 293 | 3.2 | 9.7 | 0.00 | 0.00 | 0.00 | 31 | 1018.8 |
| 20260501221521 | 13 | 285 | 3.2 | 9.7 | 0.00 | 0.00 | 0.00 | 31 | 1018.9 |
| 20260501221014 | 13 | 313 | 0.0 | 12.9 | 0.00 | 0.00 | 0.00 | 1018.9 | |
| 20260501220508 | 13 | 257 | 0.0 | 12.9 | 0.00 | 0.00 | 0.00 | 31 | 1019.1 |
| 20260501220034 | 13 | 310 | 4.8 | 12.9 | 0.00 | 0.00 | 0.00 | 31 | 1019.2 |
| 20260501215513 | 13 | 311 | 0.0 | 14.5 | 0.00 | 0.00 | 0.00 | 30 | 1019.1 |
| 20260501215009 | 13 | 5 | 3.2 | 14.5 | 0.00 | 0.00 | 0.00 | 32 | 1019.1 |
| 20260501214508 | 13 | 350 | 1.6 | 14.5 | 0.00 | 0.00 | 0.00 | 32 | 1019.2 |
| 20260501214004 | 13 | 303 | 4.8 | 14.5 | 0.00 | 0.00 | 0.00 | 32 | 1019.1 |
| 20260501213506 | 13 | 311 | 1.6 | 14.5 | 0.00 | 0.00 | 0.00 | 33 | 1019.1 |
| 20260501213016 | 13 | 322 | 3.2 | 14.5 | 0.00 | 0.00 | 0.00 | 33 | 1019.2 |
| 20260501212505 | 13 | 69 | 1.6 | 6.4 | 0.00 | 0.00 | 0.00 | 31 | 1019.3 |
| 20260501212005 | 12 | 40 | 1.6 | 12.9 | 0.00 | 0.00 | 0.00 | 30 | 1019.3 |
| 20260501211519 | 13 | 62 | 1.6 | 12.9 | 0.00 | 0.00 | 0.00 | 30 | 1019.4 |
| 20260501211008 | 13 | 352 | 1.6 | 12.9 | 0.00 | 0.00 | 0.00 | 32 | 1019.5 |
| 20260501210506 | 13 | 328 | 3.2 | 17.7 | 0.00 | 0.00 | 0.00 | 34 | 1019.4 |
| 20260501210022 | 13 | 331 | 4.8 | 17.7 | 0.00 | 0.00 | 0.00 | 31 | 1019.5 |
| 20260501205507 | 12 | 278 | 3.2 | 9.7 | 0.00 | 0.00 | 0.00 | 32 | 1019.6 |
| 20260501205007 | 12 | 319 | 1.6 | 9.7 | 0.00 | 0.00 | 0.00 | 35 | 1019.6 |
| 20260501204540 | 12 | 309 | 3.2 | 9.7 | 0.00 | 0.00 | 0.00 | 32 | 1019.7 |
| 20260501204009 | 13 | 343 | 3.2 | 9.7 | 0.00 | 0.00 | 0.00 | 33 | 1019.7 |
| 20260501203510 | 12 | 256 | 0.0 | 11.3 | 0.00 | 0.00 | 0.00 | 32 | 1019.8 |
| 20260501203015 | 12 | 331 | 6.4 | 11.3 | 0.00 | 0.00 | 0.00 | 34 | 1019.9 |
| 20260501202504 | 12 | 65 | 1.6 | 11.3 | 0.00 | 0.00 | 0.00 | 33 | 1020.0 |
| 20260501202008 | 13 | 298 | 1.6 | 12.9 | 0.00 | 0.00 | 0.00 | 38 | 1020.1 |
| 20260501201518 | 12 | 318 | 4.8 | 12.9 | 0.00 | 0.00 | 0.00 | 35 | 1020.2 |
| 20260501201010 | 12 | 308 | 4.8 | 12.9 | 0.00 | 0.00 | 0.00 | 35 | 1020.2 |
| 20260501200510 | 12 | 303 | 1.6 | 14.5 | 0.00 | 0.00 | 0.00 | 37 | 1020.2 |
| 20260501200026 | 11 | 232 | 1.6 | 14.5 | 0.00 | 0.00 | 0.00 | 35 | 1020.2 |
| 20260501195513 | 12 | 319 | 3.2 | 14.5 | 0.00 | 0.00 | 0.00 | 36 | 1020.3 |
| 20260501195009 | 12 | 321 | 4.8 | 14.5 | 0.00 | 0.00 | 0.00 | 36 | 1020.3 |
| 20260501194527 | 12 | 337 | 0.0 | 9.7 | 0.00 | 0.00 | 0.00 | 30 | 1020.3 |
| 20260501194010 | 11 | 38 | 3.2 | 14.5 | 0.00 | 0.00 | 0.00 | 38 | 1020.3 |
| 20260501193514 | 11 | 228 | 4.8 | 14.5 | 0.00 | 0.00 | 0.00 | 37 | 1020.2 |
| 20260501193028 | 12 | 325 | 1.6 | 8.0 | 0.00 | 0.00 | 0.00 | 36 | 1020.3 |
| 20260501192508 | 12 | 349 | 3.2 | 11.3 | 0.00 | 0.00 | 0.00 | 37 | 1020.4 |
| 20260501192007 | 11 | 344 | 4.8 | 11.3 | 0.00 | 0.00 | 0.00 | 35 | 1020.3 |
| 20260501191522 | 11 | 329 | 3.2 | 14.5 | 0.00 | 0.00 | 0.00 | 39 | 1020.4 |
| 20260501191011 | 11 | 292 | 3.2 | 38.6 | 0.00 | 0.00 | 0.00 | 39 | 1020.4 |
| 20260501190507 | 11 | 321 | 3.2 | 38.6 | 0.00 | 0.00 | 0.00 | 37 | 1020.3 |
| 20260501190022 | 10 | 294 | 1.6 | 9.7 | 0.00 | 0.00 | 0.00 | 42 | 1020.4 |
| 20260501185506 | 10 | 198 | 0.0 | 4.8 | 0.00 | 0.00 | 0.00 | 38 | 1020.4 |
| 20260501185006 | 10 | 107 | 1.6 | 6.4 | 0.00 | 0.00 | 0.00 | 38 | 1020.5 |
| 20260501184537 | 11 | 44 | 0.0 | 11.3 | 0.00 | 0.00 | 0.00 | 40 | 1020.5 |
| 20260501184007 | 11 | 346 | 3.2 | 11.3 | 0.00 | 0.00 | 0.00 | 38 | 1020.6 |
| 20260501183513 | 11 | 275 | 0.0 | 9.7 | 0.00 | 0.00 | 0.00 | 41 | 1020.6 |
| 20260501183035 | 11 | 275 | 4.8 | 14.5 | 0.00 | 0.00 | 0.00 | 42 | 1020.6 |
| 20260501182509 | 10 | 237 | 8.0 | 14.5 | 0.00 | 0.00 | 0.00 | 41 | 1020.6 |
| 20260501182016 | 10 | 145 | 1.6 | 6.4 | 0.00 | 0.00 | 0.00 | 38 | 1020.7 |
| 20260501181516 | 11 | 11 | 1.6 | 6.4 | 0.00 | 0.00 | 0.00 | 41 | 1020.7 |
| 20260501181007 | 11 | 238 | 1.6 | 9.7 | 0.00 | 0.00 | 0.00 | 42 | 1020.7 |
| 20260501180512 | 10 | 257 | 4.8 | 9.7 | 0.00 | 0.00 | 0.00 | 41 | 1020.7 |
| 20260501180020 | 10 | 85 | 3.2 | 6.4 | 0.00 | 0.00 | 0.00 | 43 | 1020.8 |
| 20260501175508 | 10 | 73 | 1.6 | 6.4 | 0.00 | 0.00 | 0.00 | 41 | 1021.0 |
| 20260501175008 | 10 | 310 | 0.0 | 11.3 | 0.00 | 0.00 | 0.00 | 39 | 1020.9 |
| 20260501174524 | 10 | 260 | 0.0 | 11.3 | 0.00 | 0.00 | 0.00 | 42 | 1021.0 |
| 20260501174008 | 10 | 255 | 6.4 | 11.3 | 0.00 | 0.00 | 0.00 | 43 | 1021.1 |
| 20260501173510 | 10 | 325 | 4.8 | 11.3 | 0.00 | 0.00 | 0.00 | 43 | 1021.2 |
| 20260501173025 | 10 | 51 | 1.6 | 6.4 | 0.00 | 0.00 | 0.00 | 42 | 1021.3 |
| 20260501172512 | 10 | 346 | 1.6 | 6.4 | 0.00 | 0.00 | 0.00 | 45 | 1021.3 |
| 20260501172010 | 9 | 104 | 0.0 | 6.4 | 0.00 | 0.00 | 0.00 | 44 | 1021.3 |